Location: Leeds
(37.2390°N, 113.3580°W)
Time: 13:37:30
(UTC-06:00)

ISS - All Passes

Search period start: 22 August 2014 00:00
Search period end: 01 September 2014 00:00
Orbit: 413 x 419 km, 51.6° (Epoch: 22 August)

Date Brightness Start Highest point End Pass type
(mag) Time Alt. Az. Time Alt. Az. Time Alt. Az.
22 Aug - 13:22:49 10° S 13:24:56 16° SE 13:27:04 10° E daylight
22 Aug - 14:58:12 10° WSW 15:01:24 44° NW 15:04:36 10° NE daylight
22 Aug - 16:38:00 10° NNW 16:38:49 11° NNW 16:39:38 10° N daylight
22 Aug - 19:52:52 10° NNW 19:54:52 15° NNE 19:56:52 10° ENE daylight
22 Aug - 21:28:40 10° NW 21:32:00 90° WSW 21:35:20 10° SE visible
23 Aug - 14:09:31 10° SW 14:12:49 83° NW 14:16:09 10° NE daylight
23 Aug - 15:48:08 10° WNW 15:50:00 14° NNW 15:51:52 10° NNE daylight
23 Aug - 19:04:59 10° N 19:06:03 11° NNE 19:07:07 10° NE daylight
23 Aug - 20:40:11 10° NW 20:43:26 49° NE 20:46:40 10° ESE visible
23 Aug - 22:17:55 10° W 22:19:51 15° SW 22:21:48 10° SSW visible
24 Aug - 13:21:04 10° SSW 13:24:17 50° SE 13:27:31 10° ENE daylight
24 Aug - 14:58:42 10° WNW 15:01:12 20° NNW 15:03:43 10° NNE daylight
24 Aug - 19:51:48 10° NNW 19:54:46 29° NNE 19:57:44 10° E daylight
24 Aug - 21:28:35 10° WNW 21:31:26 27° SW 21:34:18 10° SSE visible
25 Aug - 12:32:58 10° S 12:35:48 26° SE 12:38:39 10° ENE daylight
25 Aug - 14:09:31 10° W 14:12:28 29° NNW 14:15:26 10° NNE daylight
25 Aug - 19:03:30 10° NNW 19:06:01 20° NNE 19:08:32 10° ENE daylight
25 Aug - 20:39:42 10° WNW 20:42:57 51° SW 20:46:11 10° SSE visible
26 Aug - 11:45:27 10° SSE 11:47:21 15° SE 11:49:15 10° E daylight
26 Aug - 13:20:32 10° WSW 13:23:46 49° NW 13:27:00 10° NE daylight
26 Aug - 15:00:05 10° NW 15:01:08 11° NNW 15:02:12 10° N daylight
26 Aug - 18:15:19 10° NNW 18:17:11 14° NNE 18:19:03 10° ENE daylight
26 Aug - 19:51:02 10° NW 19:54:22 82° NE 19:57:41 10° SE daylight
27 Aug - 12:31:48 10° SW 12:35:07 89° SE 12:38:27 10° NE daylight
27 Aug - 14:10:15 10° WNW 14:12:14 15° NNW 14:14:14 10° NNE daylight
27 Aug - 17:27:28 10° N 17:28:17 11° NNE 17:29:05 10° NNE daylight
27 Aug - 19:02:29 10° NW 19:05:42 44° NE 19:08:54 10° ESE daylight
27 Aug - 20:40:00 10° W 20:42:09 16° SW 20:44:18 10° S visible
28 Aug - 11:43:20 10° SSW 11:46:30 45° SE 11:49:42 10° ENE daylight
28 Aug - 13:20:47 10° W 13:23:23 21° NNW 13:25:59 10° NNE daylight
28 Aug - 18:14:02 10° NNW 18:16:56 27° NNE 18:19:50 10° E daylight
28 Aug - 19:50:42 10° WNW 19:53:38 29° SW 19:56:35 10° SSE daylight
29 Aug - 10:55:13 10° S 10:57:57 24° SE 11:00:41 10° ENE daylight
29 Aug - 12:31:33 10° W 12:34:34 31° NNW 12:37:35 10° NNE daylight
29 Aug - 17:25:40 10° NNW 17:28:06 18° NNE 17:30:30 10° ENE daylight
29 Aug - 19:01:46 10° WNW 19:05:03 57° SW 19:08:19 10° SE daylight
30 Aug - 10:07:48 10° SSE 10:09:25 13° SE 10:11:03 10° E daylight
30 Aug - 11:42:32 10° WSW 11:45:47 54° NW 11:49:04 10° NE daylight
30 Aug - 13:21:51 10° NW 13:23:07 12° NNW 13:24:23 10° N daylight
30 Aug - 16:37:27 10° N 16:39:10 13° NNE 16:40:53 10° NE daylight
30 Aug - 18:13:03 10° NW 18:16:22 73° NE 18:19:41 10° SE daylight
31 Aug - 10:53:46 10° SW 10:57:04 80° SE 11:00:24 10° NE daylight
31 Aug - 12:32:02 10° WNW 12:34:09 16° NNW 12:36:16 10° NNE daylight
31 Aug - 15:49:45 10° N 15:50:09 10° NNE 15:50:34 10° NNE daylight
31 Aug - 17:24:26 10° NW 17:27:36 40° NE 17:30:46 10° ESE daylight
31 Aug - 19:01:45 10° W 19:04:06 18° SW 19:06:26 10° S daylight
